| time (UTC) | temp F | wind direction | speed MPH | gust MPH | rain 1hr in | rain 24hr in | rain mn in | humidity % | barometer mb |
| 20260904193507 | 65 | 225 | 3.0 | 6.0 | 0.00 | 0.02 | 0.00 | 89 | 1013.6 |
| 20260904193007 | 65 | 135 | 4.0 | 6.0 | 0.00 | 0.02 | 0.00 | 86 | 1013.5 |
| 20260904192507 | 66 | 199 | 3.0 | 5.0 | 0.00 | 0.02 | 0.00 | 83 | 1013.6 |
| 20260904192007 | 66 | 207 | 3.0 | 6.0 | 0.00 | 0.02 | 0.00 | 76 | 1013.6 |
| 20260904191507 | 67 | 225 | 2.0 | 6.0 | 0.00 | 0.02 | 0.00 | 77 | 1013.6 |
| 20260904191007 | 67 | 225 | 0.0 | 2.0 | 0.00 | 0.02 | 0.00 | 79 | 1013.6 |
| 20260904190507 | 67 | 243 | 3.0 | 6.0 | 0.00 | 0.02 | 0.00 | 77 | 1013.6 |
| 20260904190007 | 67 | 63 | 1.0 | 5.0 | 0.00 | 0.02 | 0.00 | 83 | 1013.6 |
| 20260904185507 | 66 | 180 | 2.0 | 5.0 | 0.00 | 0.02 | 0.00 | 85 | 1013.6 |
| 20260904185007 | 65 | 225 | 0.0 | 0.0 | 0.00 | 0.02 | 0.00 | 89 | 1013.6 |
| 20260904184507 | 65 | 153 | 0.0 | 4.0 | 0.00 | 0.02 | 0.00 | 88 | 1013.6 |
| 20260904184006 | 65 | 72 | 1.0 | 4.0 | 0.00 | 0.02 | 0.00 | 87 | 1013.4 |
| 20260904183508 | 65 | 0 | 0.0 | 0.0 | 0.00 | 0.02 | 0.00 | 89 | 1013.2 |
| 20260904183007 | 65 | 0 | 0.0 | 1.0 | 0.00 | 0.02 | 0.00 | 88 | 1013.3 |
| 20260904182506 | 65 | 216 | 0.0 | 1.0 | 0.00 | 0.02 | 0.00 | 84 | 1013.5 |
| 20260904182007 | 64 | 270 | 1.0 | 2.0 | 0.00 | 0.02 | 0.00 | 88 | 1013.3 |
| 20260904181508 | 64 | 270 | 1.0 | 2.0 | 0.00 | 0.02 | 0.00 | 89 | 1013.2 |
| 20260904181008 | 64 | 270 | 1.0 | 3.0 | 0.00 | 0.02 | 0.00 | 89 | 1013.2 |
| 20260904180507 | 64 | 270 | 0.0 | 2.0 | 0.00 | 0.02 | 0.00 | 92 | 1013.2 |
| 20260904180006 | 64 | 270 | 0.0 | 0.0 | 0.00 | 0.02 | 0.00 | 93 | 1013.2 |
| 20260904175508 | 64 | 270 | 0.0 | 1.0 | 0.00 | 0.02 | 0.00 | 94 | 1013.2 |
| 20260904175007 | 63 | 216 | 2.0 | 5.0 | 0.00 | 0.02 | 0.00 | 93 | 1013.2 |
| 20260904174507 | 63 | 63 | 0.0 | 0.0 | 0.00 | 0.02 | 0.00 | 93 | 1013.2 |
| 20260904174006 | 63 | 45 | 0.0 | 0.0 | 0.00 | 0.02 | 0.00 | 93 | 1013.2 |
| 20260904173507 | 63 | 45 | 0.0 | 0.0 | 0.00 | 0.02 | 0.00 | 93 | 1013.2 |
| 20260904173007 | 63 | 45 | 0.0 | 0.0 | 0.00 | 0.02 | 0.00 | 95 | 1013.2 |
| 20260904172507 | 62 | 45 | 0.0 | 0.0 | 0.00 | 0.02 | 0.00 | 95 | 1013.2 |
| 20260904172007 | 62 | 45 | 0.0 | 0.0 | 0.00 | 0.02 | 0.00 | 95 | 1013.2 |
| 20260904171507 | 62 | 45 | 0.0 | 0.0 | 0.00 | 0.02 | 0.00 | 96 | 1013.2 |
| 20260904171007 | 62 | 45 | 0.0 | 0.0 | 0.00 | 0.02 | 0.00 | 96 | 1013.2 |
| 20260904170507 | 61 | 45 | 0.0 | 0.0 | 0.00 | 0.02 | 0.00 | 97 | 1013.2 |
| 20260904170007 | 61 | 45 | 0.0 | 0.0 | 0.00 | 0.02 | 0.00 | 98 | 1013.2 |
| 20260904165507 | 60 | 117 | 0.0 | 0.0 | 0.00 | 0.02 | 0.00 | 98 | 1013.1 |
| 20260904165007 | 60 | 225 | 0.0 | 0.0 | 0.00 | 0.02 | 0.00 | 99 | 1012.9 |
| 20260904164507 | 60 | 225 | 0.0 | 0.0 | 0.00 | 0.02 | 0.00 | 99 | 1012.9 |
| 20260904164007 | 59 | 225 | 0.0 | 0.0 | 0.00 | 0.02 | 0.00 | 99 | 1012.9 |
| 20260904163507 | 58 | 225 | 0.0 | 0.0 | 0.00 | 0.02 | 0.00 | 99 | 1012.9 |
| 20260904163007 | 58 | 225 | 0.0 | 0.0 | 0.00 | 0.02 | 0.00 | 99 | 1012.9 |
| 20260904162507 | 58 | 225 | 0.0 | 0.0 | 0.00 | 0.02 | 0.00 | 99 | 1012.9 |
| 20260904162007 | 57 | 225 | 0.0 | 0.0 | 0.00 | 0.02 | 0.00 | 99 | 1012.9 |
| 20260904161507 | 57 | 225 | 0.0 | 0.0 | 0.00 | 0.02 | 0.00 | 99 | 1012.9 |
| 20260904161007 | 57 | 225 | 0.0 | 0.0 | 0.00 | 0.02 | 0.00 | 99 | 1012.9 |
| 20260904160507 | 57 | 225 | 0.0 | 0.0 | 0.00 | 0.02 | 0.00 | 99 | 1012.9 |
| 20260904160007 | 56 | 225 | 0.0 | 0.0 | 0.00 | 0.02 | 0.00 | 99 | 1012.9 |
| 20260904155507 | 56 | 225 | 0.0 | 0.0 | 0.00 | 0.02 | 0.00 | 99 | 1012.9 |
| 20260904155007 | 56 | 225 | 0.0 | 0.0 | 0.00 | 0.02 | 0.00 | 99 | 1012.9 |
| 20260904154506 | 55 | 225 | 0.0 | 0.0 | 0.00 | 0.02 | 0.00 | 99 | 1012.9 |
| 20260904154007 | 55 | 225 | 0.0 | 0.0 | 0.00 | 0.02 | 0.00 | 99 | 1012.9 |
| 20260904153507 | 55 | 225 | 0.0 | 0.0 | 0.00 | 0.02 | 0.00 | 99 | 1012.9 |
| 20260904153007 | 55 | 225 | 0.0 | 0.0 | 0.00 | 0.02 | 0.00 | 99 | 1012.9 |
| 20260904152507 | 55 | 225 | 0.0 | 0.0 | 0.00 | 0.02 | 0.00 | 99 | 1012.9 |
| 20260904152007 | 55 | 225 | 0.0 | 0.0 | 0.00 | 0.02 | 0.00 | 99 | 1012.9 |
| 20260904151507 | 54 | 225 | 0.0 | 0.0 | 0.00 | 0.02 | 0.00 | 99 | 1012.9 |
| 20260904151007 | 54 | 225 | 0.0 | 0.0 | 0.00 | 0.02 | 0.00 | 99 | 1012.9 |
| 20260904150507 | 54 | 225 | 0.0 | 0.0 | 0.00 | 0.02 | 0.00 | 99 | 1012.7 |
| 20260904150007 | 54 | 225 | 0.0 | 0.0 | 0.00 | 0.02 | 0.00 | 99 | 1012.5 |
| 20260904145506 | 54 | 225 | 0.0 | 0.0 | 0.00 | 0.02 | 0.00 | 99 | 1012.5 |
| 20260904145007 | 54 | 225 | 0.0 | 0.0 | 0.00 | 0.02 | 0.00 | 99 | 1012.2 |
| 20260904144507 | 54 | 225 | 0.0 | 0.0 | 0.00 | 0.02 | 0.00 | 99 | 1012.2 |
| 20260904144007 | 54 | 225 | 0.0 | 0.0 | 0.00 | 0.02 | 0.00 | 99 | 1012.2 |
| 20260904143507 | 54 | 225 | 0.0 | 0.0 | 0.00 | 0.02 | 0.00 | 99 | 1012.2 |
| 20260904143007 | 54 | 225 | 0.0 | 0.0 | 0.00 | 0.02 | 0.00 | 99 | 1012.2 |
| 20260904142507 | 54 | 225 | 0.0 | 0.0 | 0.00 | 0.02 | 0.00 | 99 | 1012.2 |
| 20260904142007 | 54 | 225 | 0.0 | 0.0 | 0.00 | 0.02 | 0.00 | 99 | 1012.2 |
| 20260904141507 | 54 | 225 | 0.0 | 0.0 | 0.00 | 0.02 | 0.00 | 99 | 1012.2 |
| 20260904141007 | 54 | 225 | 0.0 | 0.0 | 0.00 | 0.02 | 0.00 | 99 | 1012.1 |
| 20260904140506 | 54 | 225 | 0.0 | 0.0 | 0.00 | 0.02 | 0.00 | 99 | 1011.9 |
| 20260904140008 | 54 | 225 | 0.0 | 0.0 | 0.00 | 0.02 | 0.00 | 99 | 1011.9 |
| 20260904135506 | 54 | 225 | 0.0 | 0.0 | 0.00 | 0.02 | 0.00 | 99 | 1011.9 |
| 20260904135008 | 54 | 225 | 0.0 | 0.0 | 0.00 | 0.02 | 0.00 | 99 | 1011.9 |
| 20260904134508 | 54 | 225 | 0.0 | 0.0 | 0.00 | 0.02 | 0.00 | 99 | 1011.9 |
| 20260904134007 | 54 | 225 | 0.0 | 0.0 | 0.00 | 0.02 | 0.00 | 99 | 1011.9 |
| 20260904133507 | 54 | 225 | 0.0 | 0.0 | 0.00 | 0.02 | 0.00 | 99 | 1011.9 |
| 20260904133008 | 54 | 225 | 0.0 | 0.0 | 0.00 | 0.02 | 0.00 | 99 | 1011.9 |
| 20260904132506 | 54 | 225 | 0.0 | 0.0 | 0.00 | 0.02 | 0.00 | 99 | 1011.9 |
| 20260904132006 | 54 | 225 | 0.0 | 0.0 | 0.00 | 0.02 | 0.00 | 99 | 1011.9 |
| 20260904131507 | 54 | 225 | 0.0 | 0.0 | 0.00 | 0.02 | 0.00 | 99 | 1011.9 |
| 20260904131007 | 54 | 225 | 0.0 | 0.0 | 0.00 | 0.02 | 0.00 | 99 | 1011.9 |
| 20260904130506 | 54 | 225 | 0.0 | 0.0 | 0.00 | 0.02 | 0.00 | 99 | 1011.8 |
| 20260904130007 | 54 | 225 | 0.0 | 0.0 | 0.00 | 0.02 | 0.00 | 99 | 1011.5 |
| 20260904125507 | 54 | 225 | 0.0 | 0.0 | 0.00 | 0.02 | 0.00 | 99 | 1011.5 |
| 20260904125007 | 54 | 225 | 0.0 | 0.0 | 0.00 | 0.02 | 0.00 | 99 | 1011.5 |
| 20260904124506 | 54 | 225 | 0.0 | 0.0 | 0.00 | 0.02 | 0.00 | 99 | 1011.5 |
| 20260904124007 | 54 | 225 | 0.0 | 0.0 | 0.00 | 0.02 | 0.00 | 99 | 1011.5 |
| 20260904123507 | 54 | 225 | 0.0 | 0.0 | 0.00 | 0.02 | 0.00 | 99 | 1011.5 |
| 20260904123008 | 54 | 225 | 0.0 | 0.0 | 0.00 | 0.02 | 0.00 | 99 | 1011.3 |
| 20260904122507 | 54 | 225 | 0.0 | 0.0 | 0.00 | 0.02 | 0.00 | 99 | 1011.2 |
| 20260904122007 | 54 | 225 | 0.0 | 0.0 | 0.00 | 0.02 | 0.00 | 99 | 1011.2 |
| 20260904121507 | 54 | 225 | 0.0 | 0.0 | 0.00 | 0.01 | 0.00 | 99 | 1011.2 |
| 20260904121006 | 54 | 225 | 0.0 | 0.0 | 0.00 | 0.01 | 0.00 | 99 | 1011.2 |
| 20260904120507 | 54 | 225 | 0.0 | 0.0 | 0.00 | 0.01 | 0.00 | 99 | 1011.2 |
| 20260904120007 | 54 | 225 | 0.0 | 0.0 | 0.00 | 0.01 | 0.00 | 99 | 1011.2 |
| 20260904115507 | 54 | 225 | 0.0 | 0.0 | 0.00 | 0.01 | 0.00 | 99 | 1011.2 |
| 20260904115007 | 54 | 225 | 0.0 | 0.0 | 0.00 | 0.01 | 0.00 | 99 | 1011.2 |
| 20260904114506 | 54 | 225 | 0.0 | 0.0 | 0.00 | 0.01 | 0.00 | 99 | 1011.2 |
| 20260904114007 | 54 | 225 | 0.0 | 0.0 | 0.00 | 0.01 | 0.00 | 99 | 1011.2 |
| 20260904113507 | 54 | 225 | 0.0 | 0.0 | 0.00 | 0.01 | 0.00 | 99 | 1011.2 |
| 20260904113008 | 54 | 225 | 0.0 | 0.0 | 0.00 | 0.01 | 0.00 | 99 | 1011.2 |
| 20260904112507 | 54 | 225 | 0.0 | 0.0 | 0.00 | 0.01 | 0.00 | 99 | 1010.9 |
| 20260904112007 | 54 | 225 | 0.0 | 0.0 | 0.00 | 0.01 | 0.00 | 99 | 1010.8 |
| 20260904111507 | 55 | 225 | 0.0 | 0.0 | 0.00 | 0.01 | 0.00 | 99 | 1010.8 |
| 20260904111007 | 55 | 225 | 0.0 | 0.0 | 0.00 | 0.01 | 0.00 | 99 | 1010.8 |
| 20260904110506 | 55 | 225 | 0.0 | 0.0 | 0.00 | 0.00 | 0.00 | 99 | 1010.8 |
| 20260904110007 | 55 | 225 | 0.0 | 0.0 | 0.00 | 0.00 | 0.00 | 99 | 1010.8 |
| 20260904105507 | 55 | 225 | 0.0 | 0.0 | 0.00 | 0.00 | 0.00 | 99 | 1010.8 |
| 20260904105007 | 55 | 225 | 0.0 | 0.0 | 0.00 | 0.00 | 0.00 | 99 | 1010.8 |
| 20260904104507 | 55 | 225 | 0.0 | 0.0 | 0.00 | 0.00 | 0.00 | 99 | 1010.8 |
| 20260904104007 | 55 | 225 | 0.0 | 0.0 | 0.00 | 0.00 | 0.00 | 99 | 1010.8 |
| 20260904103507 | 55 | 225 | 0.0 | 0.0 | 0.00 | 0.00 | 0.00 | 99 | 1010.8 |
| 20260904103007 | 54 | 225 | 0.0 | 0.0 | 0.00 | 0.00 | 0.00 | 99 | 1010.8 |
| 20260904102507 | 54 | 225 | 0.0 | 0.0 | 0.00 | 0.00 | 0.00 | 99 | 1010.8 |
| 20260904102007 | 54 | 225 | 0.0 | 0.0 | 0.00 | 0.00 | 0.00 | 99 | 1010.8 |
| 20260904101507 | 54 | 225 | 0.0 | 0.0 | 0.00 | 0.00 | 0.00 | 99 | 1010.7 |
| 20260904101007 | 54 | 225 | 0.0 | 0.0 | 0.00 | 0.00 | 0.00 | 99 | 1010.5 |
| 20260904100507 | 54 | 225 | 0.0 | 0.0 | 0.00 | 0.00 | 0.00 | 99 | 1010.5 |
| 20260904100007 | 54 | 225 | 0.0 | 0.0 | 0.00 | 0.00 | 0.00 | 99 | 1010.5 |
| 20260904095507 | 54 | 225 | 0.0 | 0.0 | 0.00 | 0.00 | 0.00 | 99 | 1010.5 |
| 20260904095006 | 54 | 225 | 0.0 | 0.0 | 0.00 | 0.00 | 0.00 | 99 | 1010.5 |
| 20260904094507 | 54 | 225 | 0.0 | 0.0 | 0.00 | 0.00 | 0.00 | 99 | 1010.5 |
| 20260904094007 | 55 | 225 | 0.0 | 0.0 | 0.00 | 0.00 | 0.00 | 99 | 1010.5 |
| 20260904093507 | 55 | 225 | 0.0 | 0.0 | 0.00 | 0.00 | 0.00 | 99 | 1010.5 |
| 20260904093007 | 55 | 225 | 0.0 | 0.0 | 0.00 | 0.00 | 0.00 | 99 | 1010.5 |
| 20260904092507 | 55 | 225 | 0.0 | 0.0 | 0.00 | 0.00 | 0.00 | 99 | 1010.5 |
| 20260904092007 | 55 | 225 | 0.0 | 0.0 | 0.00 | 0.00 | 0.00 | 99 | 1010.5 |
| 20260904091507 | 55 | 225 | 0.0 | 0.0 | 0.00 | 0.00 | 0.00 | 99 | 1010.5 |
| 20260904091007 | 55 | 225 | 0.0 | 0.0 | 0.00 | 0.00 | 0.00 | 99 | 1010.5 |
| 20260904090507 | 55 | 225 | 0.0 | 0.0 | 0.00 | 0.00 | 0.00 | 99 | 1010.5 |
| 20260904090008 | 55 | 225 | 0.0 | 0.0 | 0.00 | 0.00 | 0.00 | 99 | 1010.5 |
| 20260904085507 | 55 | 225 | 0.0 | 0.0 | 0.00 | 0.00 | 0.00 | 99 | 1010.2 |
| 20260904085007 | 55 | 225 | 0.0 | 0.0 | 0.00 | 0.00 | 0.00 | 99 | 1010.2 |
| 20260904084507 | 55 | 225 | 0.0 | 0.0 | 0.00 | 0.00 | 0.00 | 99 | 1010.3 |
| 20260904084007 | 55 | 225 | 0.0 | 0.0 | 0.00 | 0.00 | 0.00 | 99 | 1010.5 |
| 20260904083507 | 55 | 225 | 0.0 | 0.0 | 0.00 | 0.00 | 0.00 | 99 | 1010.5 |
| 20260904083008 | 55 | 225 | 0.0 | 0.0 | 0.00 | 0.00 | 0.00 | 99 | 1010.5 |
| 20260904082507 | 55 | 225 | 0.0 | 0.0 | 0.00 | 0.00 | 0.00 | 99 | 1010.5 |
| 20260904082008 | 55 | 225 | 0.0 | 0.0 | 0.00 | 0.00 | 0.00 | 99 | 1010.5 |
| 20260904081507 | 55 | 225 | 0.0 | 0.0 | 0.00 | 0.00 | 0.00 | 99 | 1010.5 |
| 20260904081007 | 55 | 225 | 0.0 | 0.0 | 0.00 | 0.00 | 0.00 | 99 | 1010.3 |
| 20260904080506 | 56 | 225 | 0.0 | 0.0 | 0.00 | 0.00 | 0.00 | 99 | 1010.5 |
| 20260904080007 | 56 | 225 | 0.0 | 0.0 | 0.00 | 0.00 | 0.00 | 99 | 1010.5 |
| 20260904075507 | 56 | 225 | 0.0 | 0.0 | 0.00 | 0.00 | 0.00 | 99 | 1010.5 |
| 20260904075007 | 56 | 225 | 0.0 | 0.0 | 0.00 | 0.00 | 0.00 | 99 | 1010.5 |
| 20260904074507 | 56 | 225 | 0.0 | 0.0 | 0.00 | 0.00 | 0.00 | 99 | 1010.5 |
| 20260904074007 | 56 | 225 | 0.0 | 0.0 | 0.00 | 0.00 | 0.00 | 99 | 1010.5 |
| 20260904073507 | 56 | 225 | 0.0 | 0.0 | 0.00 | 0.00 | 0.00 | 99 | 1010.5 |
| 20260904073007 | 56 | 225 | 0.0 | 0.0 | 0.00 | 0.00 | 0.00 | 99 | 1010.5 |
| 20260904072506 | 56 | 225 | 0.0 | 0.0 | 0.00 | 0.00 | 0.00 | 99 | 1010.5 |
| 20260904072008 | 56 | 225 | 0.0 | 0.0 | 0.00 | 0.00 | 0.00 | 99 | 1010.5 |
| 20260904071506 | 56 | 225 | 0.0 | 0.0 | 0.00 | 0.00 | 0.00 | 99 | 1010.5 |
| 20260904071007 | 56 | 225 | 0.0 | 0.0 | 0.00 | 0.00 | 0.00 | 99 | 1010.5 |
| 20260904070507 | 56 | 225 | 0.0 | 0.0 | 0.00 | 0.00 | 0.00 | 99 | 1010.3 |
| 20260904070007 | 56 | 225 | 0.0 | 0.0 | 0.00 | 0.00 | 0.00 | 99 | 1010.2 |
| 20260904065507 | 56 | 225 | 0.0 | 0.0 | 0.00 | 0.07 | 0.00 | 99 | 1010.2 |
| 20260904065007 | 55 | 225 | 0.0 | 0.0 | 0.00 | 0.07 | 0.00 | 99 | 1010.2 |
| 20260904064507 | 55 | 225 | 0.0 | 0.0 | 0.00 | 0.07 | 0.00 | 99 | 1010.2 |
| 20260904064007 | 55 | 225 | 0.0 | 0.0 | 0.00 | 0.07 | 0.00 | 99 | 1010.2 |
| 20260904063507 | 55 | 225 | 0.0 | 0.0 | 0.00 | 0.07 | 0.00 | 99 | 1010.2 |
| 20260904063007 | 55 | 225 | 0.0 | 0.0 | 0.00 | 0.07 | 0.00 | 99 | 1010.2 |
| 20260904062507 | 55 | 225 | 0.0 | 0.0 | 0.00 | 0.07 | 0.00 | 99 | 1010.2 |
| 20260904062007 | 55 | 225 | 0.0 | 0.0 | 0.00 | 0.07 | 0.00 | 99 | 1010.2 |
| 20260904061507 | 55 | 225 | 0.0 | 0.0 | 0.00 | 0.07 | 0.00 | 99 | 1010.2 |
| 20260904061007 | 55 | 225 | 0.0 | 0.0 | 0.00 | 0.07 | 0.00 | 99 | 1010.2 |
| 20260904060507 | 55 | 225 | 0.0 | 0.0 | 0.00 | 0.07 | 0.00 | 99 | 1010.2 |
| 20260904060007 | 55 | 225 | 0.0 | 0.0 | 0.00 | 0.07 | 0.00 | 99 | 1010.2 |
| 20260904055507 | 55 | 225 | 0.0 | 0.0 | 0.00 | 0.07 | 0.00 | 99 | 1010.2 |
| 20260904055007 | 55 | 225 | 0.0 | 0.0 | 0.00 | 0.07 | 0.00 | 99 | 1010.3 |
| 20260904054507 | 55 | 225 | 0.0 | 0.0 | 0.00 | 0.07 | 0.00 | 99 | 1010.5 |
| 20260904054007 | 55 | 225 | 0.0 | 0.0 | 0.00 | 0.07 | 0.00 | 99 | 1010.5 |
| 20260904053507 | 55 | 225 | 0.0 | 0.0 | 0.00 | 0.07 | 0.00 | 99 | 1010.5 |
| 20260904053007 | 55 | 225 | 0.0 | 0.0 | 0.00 | 0.07 | 0.00 | 99 | 1010.5 |
| 20260904052507 | 55 | 225 | 0.0 | 0.0 | 0.00 | 0.07 | 0.00 | 99 | 1010.5 |
| 20260904052007 | 55 | 225 | 0.0 | 0.0 | 0.00 | 0.07 | 0.00 | 99 | 1010.5 |
| 20260904051507 | 56 | 225 | 0.0 | 0.0 | 0.00 | 0.07 | 0.00 | 99 | 1010.5 |
| 20260904051007 | 56 | 225 | 0.0 | 0.0 | 0.00 | 0.07 | 0.00 | 99 | 1010.5 |
| 20260904050506 | 56 | 225 | 0.0 | 0.0 | 0.00 | 0.07 | 0.00 | 99 | 1010.5 |
| 20260904050007 | 56 | 225 | 0.0 | 0.0 | 0.00 | 0.07 | 0.00 | 99 | 1010.5 |
| 20260904045507 | 56 | 225 | 0.0 | 0.0 | 0.00 | 0.07 | 0.00 | 99 | 1010.5 |
| 20260904045007 | 56 | 225 | 0.0 | 0.0 | 0.00 | 0.07 | 0.00 | 98 | 1010.5 |
| 20260904044507 | 56 | 225 | 0.0 | 0.0 | 0.00 | 0.07 | 0.00 | 98 | 1010.5 |
| 20260904044007 | 56 | 225 | 0.0 | 0.0 | 0.00 | 0.07 | 0.00 | 98 | 1010.5 |
| 20260904043507 | 56 | 225 | 0.0 | 0.0 | 0.00 | 0.07 | 0.00 | 98 | 1010.5 |
| 20260904043006 | 56 | 225 | 0.0 | 0.0 | 0.00 | 0.07 | 0.00 | 98 | 1010.5 |
| 20260904042507 | 56 | 225 | 0.0 | 0.0 | 0.00 | 0.07 | 0.00 | 98 | 1010.5 |
| 20260904042007 | 56 | 225 | 0.0 | 0.0 | 0.00 | 0.07 | 0.00 | 98 | 1010.5 |
| 20260904041507 | 56 | 225 | 0.0 | 0.0 | 0.00 | 0.07 | 0.00 | 98 | 1010.5 |
| 20260904041007 | 56 | 225 | 0.0 | 0.0 | 0.00 | 0.07 | 0.00 | 98 | 1010.5 |
| 20260904040507 | 56 | 225 | 0.0 | 0.0 | 0.00 | 0.07 | 0.00 | 98 | 1010.5 |
| 20260904040007 | 56 | 225 | 0.0 | 0.0 | 0.00 | 0.07 | 0.00 | 98 | 1010.5 |
| 20260904035507 | 56 | 225 | 0.0 | 0.0 | 0.00 | 0.07 | 0.00 | 98 | 1010.5 |
| 20260904035007 | 56 | 225 | 0.0 | 0.0 | 0.00 | 0.07 | 0.00 | 98 | 1010.5 |
| 20260904034507 | 57 | 225 | 0.0 | 0.0 | 0.00 | 0.07 | 0.00 | 98 | 1010.5 |
| 20260904034007 | 57 | 225 | 0.0 | 0.0 | 0.00 | 0.07 | 0.00 | 98 | 1010.5 |
| 20260904033507 | 57 | 225 | 0.0 | 0.0 | 0.00 | 0.07 | 0.00 | 97 | 1010.2 |
| 20260904033007 | 57 | 225 | 0.0 | 0.0 | 0.00 | 0.07 | 0.00 | 97 | 1010.2 |
| 20260904032507 | 57 | 225 | 0.0 | 0.0 | 0.00 | 0.07 | 0.00 | 97 | 1010.2 |
| 20260904032007 | 57 | 225 | 0.0 | 0.0 | 0.00 | 0.07 | 0.00 | 97 | 1010.2 |
| 20260904031507 | 57 | 225 | 0.0 | 0.0 | 0.00 | 0.07 | 0.00 | 97 | 1010.1 |
| 20260904031007 | 57 | 225 | 0.0 | 0.0 | 0.00 | 0.07 | 0.00 | 97 | 1009.9 |
| 20260904030507 | 58 | 225 | 0.0 | 0.0 | 0.00 | 0.07 | 0.00 | 96 | 1009.8 |
| 20260904030007 | 58 | 225 | 0.0 | 0.0 | 0.00 | 0.07 | 0.00 | 96 | 1009.8 |
| 20260904025507 | 58 | 225 | 0.0 | 0.0 | 0.00 | 0.07 | 0.00 | 96 | 1009.8 |
| 20260904025007 | 58 | 225 | 0.0 | 0.0 | 0.00 | 0.07 | 0.00 | 95 | 1009.8 |
| 20260904024507 | 59 | 225 | 0.0 | 0.0 | 0.00 | 0.07 | 0.00 | 95 | 1009.8 |
| 20260904024007 | 59 | 225 | 0.0 | 0.0 | 0.00 | 0.07 | 0.00 | 95 | 1009.8 |
| 20260904023507 | 59 | 225 | 0.0 | 0.0 | 0.00 | 0.07 | 0.00 | 95 | 1009.8 |
| 20260904023006 | 59 | 225 | 0.0 | 0.0 | 0.00 | 0.07 | 0.00 | 95 | 1009.8 |
| 20260904022508 | 60 | 225 | 0.0 | 0.0 | 0.00 | 0.07 | 0.00 | 94 | 1009.8 |
| 20260904022007 | 60 | 225 | 0.0 | 0.0 | 0.00 | 0.07 | 0.00 | 94 | 1009.8 |
| 20260904021507 | 60 | 225 | 0.0 | 0.0 | 0.00 | 0.07 | 0.00 | 94 | 1009.8 |
| 20260904021007 | 60 | 225 | 0.0 | 0.0 | 0.00 | 0.07 | 0.00 | 94 | 1009.8 |
| 20260904020507 | 61 | 225 | 0.0 | 0.0 | 0.00 | 0.07 | 0.00 | 94 | 1009.8 |
| 20260904020007 | 61 | 225 | 0.0 | 0.0 | 0.00 | 0.07 | 0.00 | 94 | 1009.8 |
| 20260904015507 | 61 | 225 | 0.0 | 0.0 | 0.00 | 0.07 | 0.00 | 94 | 1009.8 |
| 20260904015006 | 61 | 225 | 1.0 | 2.0 | 0.00 | 0.07 | 0.00 | 94 | 1009.8 |
| 20260904014507 | 61 | 261 | 1.0 | 2.0 | 0.00 | 0.07 | 0.00 | 93 | 1009.8 |
| 20260904014007 | 61 | 261 | 0.0 | 2.0 | 0.00 | 0.07 | 0.00 | 93 | 1009.8 |
| 20260904013507 | 61 | 153 | 3.0 | 6.0 | 0.00 | 0.07 | 0.00 | 93 | 1009.8 |
| 20260904013007 | 61 | 153 | 4.0 | 8.0 | 0.00 | 0.07 | 0.00 | 93 | 1009.8 |
| 20260904012508 | 61 | 180 | 1.0 | 5.0 | 0.00 | 0.07 | 0.00 | 94 | 1009.8 |
| 20260904012007 | 61 | 198 | 1.0 | 5.0 | 0.00 | 0.07 | 0.00 | 94 | 1009.8 |
| 20260904011507 | 61 | 225 | 0.0 | 0.0 | 0.00 | 0.07 | 0.00 | 94 | 1009.8 |
| 20260904011007 | 61 | 225 | 0.0 | 0.0 | 0.00 | 0.07 | 0.00 | 93 | 1009.8 |
| 20260904010507 | 61 | 225 | 0.0 | 0.0 | 0.00 | 0.07 | 0.00 | 93 | 1009.8 |
| 20260904010007 | 61 | 225 | 0.0 | 0.0 | 0.00 | 0.07 | 0.00 | 92 | 1009.8 |
| 20260904005507 | 61 | 225 | 0.0 | 1.0 | 0.00 | 0.07 | 0.00 | 91 | 1009.8 |
| 20260904005007 | 61 | 198 | 0.0 | 1.0 | 0.00 | 0.07 | 0.00 | 92 | 1009.8 |
| 20260904004507 | 61 | 171 | 2.0 | 5.0 | 0.00 | 0.07 | 0.00 | 89 | 1009.8 |
| 20260904004007 | 61 | 144 | 3.0 | 5.0 | 0.00 | 0.07 | 0.00 | 86 | 1009.8 |
| 20260904003507 | 62 | 162 | 2.0 | 6.0 | 0.00 | 0.07 | 0.00 | 83 | 1009.8 |
| 20260904003006 | 62 | 171 | 3.0 | 7.0 | 0.00 | 0.07 | 0.00 | 84 | 1009.8 |
| 20260904002507 | 62 | 261 | 1.0 | 4.0 | 0.00 | 0.07 | 0.00 | 90 | 1009.8 |
| 20260904002007 | 62 | 207 | 1.0 | 4.0 | 0.00 | 0.07 | 0.00 | 92 | 1009.8 |
| 20260904001507 | 62 | 144 | 6.0 | 7.0 | 0.00 | 0.07 | 0.00 | 92 | 1010.2 |
| 20260904001008 | 61 | 135 | 5.0 | 8.0 | 0.00 | 0.07 | 0.00 | 93 | 1010.2 |
| 20260904000507 | 60 | 153 | 3.0 | 5.0 | 0.00 | 0.07 | 0.00 | 94 | 1010.2 |
| 20260904000007 | 60 | 171 | 2.0 | 4.0 | 0.00 | 0.07 | 0.00 | 95 | 1010.1 |
| 20260903235507 | 60 | 99 | 2.0 | 5.0 | 0.00 | 0.07 | 0.00 | 95 | 1010.2 |
| 20260903235007 | 59 | 45 | 0.0 | 1.0 | 0.00 | 0.07 | 0.00 | 95 | 1010.1 |
| 20260903234507 | 59 | 135 | 1.0 | 4.0 | 0.00 | 0.07 | 0.00 | 95 | 1010.2 |
| 20260903234007 | 59 | 135 | 1.0 | 4.0 | 0.00 | 0.07 | 0.00 | 95 | 1010.2 |
| 20260903233506 | 59 | 135 | 0.0 | 0.0 | 0.00 | 0.07 | 0.00 | 95 | 1010.2 |
| 20260903233008 | 59 | 135 | 0.0 | 1.0 | 0.00 | 0.07 | 0.00 | 95 | 1010.2 |
| 20260903232507 | 59 | 135 | 1.0 | 6.0 | 0.00 | 0.07 | 0.00 | 94 | 1010.2 |
| 20260903232006 | 59 | 144 | 4.0 | 6.0 | 0.00 | 0.07 | 0.00 | 94 | 1010.4 |
| 20260903231507 | 60 | 144 | 6.0 | 7.0 | 0.00 | 0.06 | 0.00 | 94 | 1010.5 |
| 20260903231007 | 60 | 169 | 3.0 | 5.0 | 0.00 | 0.06 | 0.00 | 93 | 1010.5 |
| 20260903230507 | 60 | 126 | 7.0 | 9.0 | 0.00 | 0.06 | 0.00 | 92 | 1010.5 |
| 20260903230007 | 61 | 162 | 5.0 | 6.0 | 0.00 | 0.06 | 0.00 | 91 | 1010.5 |
| 20260903225507 | 61 | 162 | 6.0 | 7.0 | 0.00 | 0.06 | 0.00 | 91 | 1010.5 |
| 20260903225007 | 62 | 135 | 5.0 | 6.0 | 0.00 | 0.06 | 0.00 | 88 | 1010.5 |
| 20260903224507 | 62 | 153 | 5.0 | 8.0 | 0.00 | 0.06 | 0.00 | 87 | 1010.5 |
| 20260903224007 | 62 | 153 | 5.0 | 8.0 | 0.00 | 0.06 | 0.00 | 85 | 1010.5 |
| 20260903223507 | 63 | 108 | 6.0 | 9.0 | 0.00 | 0.06 | 0.00 | 83 | 1010.5 |
| 20260903223007 | 63 | 169 | 5.0 | 8.0 | 0.00 | 0.06 | 0.00 | 81 | 1010.5 |
| 20260903222507 | 63 | 225 | 5.0 | 8.0 | 0.00 | 0.06 | 0.00 | 78 | 1010.3 |
| 20260903222007 | 63 | 208 | 6.0 | 8.0 | 0.00 | 0.06 | 0.00 | 82 | 1010.2 |
| 20260903221507 | 64 | 162 | 6.0 | 7.0 | 0.00 | 0.06 | 0.00 | 86 | 1010.2 |
| 20260903221007 | 64 | 171 | 6.0 | 7.0 | 0.00 | 0.06 | 0.00 | 77 | 1010.2 |
| 20260903220506 | 64 | 108 | 8.0 | 10.0 | 0.00 | 0.06 | 0.00 | 74 | 1010.2 |
| 20260903220007 | 64 | 117 | 7.0 | 9.0 | 0.00 | 0.06 | 0.00 | 74 | 1010.2 |
| 20260903215507 | 64 | 153 | 7.0 | 10.0 | 0.00 | 0.06 | 0.00 | 75 | 1010.2 |
| 20260903215007 | 64 | 162 | 7.0 | 10.0 | 0.00 | 0.06 | 0.00 | 77 | 1010.2 |
| 20260903214507 | 64 | 126 | 5.0 | 9.0 | 0.00 | 0.06 | 0.00 | 79 | 1010.2 |
| 20260903214007 | 63 | 153 | 8.0 | 9.0 | 0.00 | 0.06 | 0.00 | 76 | 1010.2 |
| 20260903213506 | 63 | 99 | 8.0 | 12.0 | 0.00 | 0.06 | 0.00 | 75 | 1010.3 |
| 20260903213007 | 63 | 135 | 8.0 | 12.0 | 0.00 | 0.06 | 0.00 | 76 | 1010.5 |
| 20260903212507 | 63 | 144 | 9.0 | 11.0 | 0.00 | 0.06 | 0.00 | 76 | 1010.5 |
| 20260903212007 | 63 | 171 | 8.0 | 9.0 | 0.00 | 0.06 | 0.00 | 76 | 1010.5 |
| 20260903211507 | 63 | 135 | 7.0 | 12.0 | 0.00 | 0.06 | 0.00 | 75 | 1010.5 |
| 20260903211007 | 64 | 162 | 8.0 | 9.0 | 0.00 | 0.06 | 0.00 | 77 | 1010.5 |
| 20260903210507 | 64 | 172 | 7.0 | 9.0 | 0.00 | 0.06 | 0.00 | 83 | 1010.2 |
| 20260903210007 | 64 | 180 | 6.0 | 8.0 | 0.00 | 0.06 | 0.00 | 89 | 1010.2 |
| 20260903205507 | 63 | 171 | 6.0 | 9.0 | 0.00 | 0.06 | 0.00 | 88 | 1010.2 |
| 20260903205007 | 63 | 144 | 8.0 | 10.0 | 0.00 | 0.06 | 0.00 | 86 | 1010.2 |
| 20260903204507 | 63 | 171 | 7.0 | 9.0 | 0.00 | 0.06 | 0.00 | 86 | 1010.2 |
| 20260903204007 | 63 | 117 | 7.0 | 9.0 | 0.00 | 0.06 | 0.00 | 86 | 1010.2 |
| 20260903203506 | 63 | 135 | 6.0 | 7.0 | 0.00 | 0.06 | 0.00 | 87 | 1010.2 |
| 20260903203007 | 63 | 117 | 6.0 | 9.0 | 0.00 | 0.06 | 0.00 | 86 | 1010.2 |
| 20260903202507 | 63 | 126 | 5.0 | 6.0 | 0.00 | 0.06 | 0.00 | 86 | 1010.2 |
| 20260903202007 | 63 | 126 | 5.0 | 6.0 | 0.00 | 0.06 | 0.00 | 87 | 1010.2 |
| 20260903201506 | 63 | 153 | 7.0 | 8.0 | 0.00 | 0.06 | 0.00 | 84 | 1010.2 |
| 20260903201007 | 64 | 153 | 6.0 | 11.0 | 0.00 | 0.06 | 0.00 | 84 | 1010.2 |
| 20260903200507 | 64 | 171 | 8.0 | 10.0 | 0.00 | 0.06 | 0.00 | 85 | 1010.2 |
| 20260903200007 | 65 | 90 | 5.0 | 7.0 | 0.00 | 0.06 | 0.00 | 88 | 1010.2 |
| 20260903195507 | 64 | 135 | 6.0 | 8.0 | 0.00 | 0.06 | 0.00 | 87 | 1010.2 |
| 20260903195007 | 65 | 117 | 7.0 | 11.0 | 0.00 | 0.06 | 0.00 | 86 | 1010.2 |
| 20260903194507 | 64 | 135 | 4.0 | 5.0 | 0.00 | 0.06 | 0.00 | 91 | 1010.2 |
| 20260903194007 | 64 | 153 | 8.0 | 9.0 | 0.00 | 0.06 | 0.00 | 87 | 1010.2 |